Regional Weather Roundup
Issued by NWS

Home | Current Version | Previous Version | Text Only | Print | Product List | Glossary Off
Versions: 1 2 3 4 5 6 7 8 9 10 11 12 13 14 15 16 17 18 19 20 21 22 23 24 25 26 27 28 29 30 31 32 33 34 35 36 37 38 39 40 41 42 43 44 45 46 47 48 49 50

000
ASUS43 KTOP 291508
RWRKS

WEATHER ROUNDUP FOR KANSAS
NATIONAL WEATHER SERVICE GOODLAND KS
1000 AM CDT WED OCT 29 2014

NOTE:  "FAIR" INDICATES FEW OR NO CLOUDS BELOW 12,000 FEET WITH NO
SIGNIFICANT WEATHER AND/OR OBSTRUCTIONS TO VISIBILITY.

KSZ001>006-013>018-027>032-041>047-291600-
NORTHWEST KANSAS

CITY           SKY/WX    TMP DP  RH WIND       PRES   REMARKS
GOODLAND       SUNNY     46  31  55 W6        30.18R
HAYS           SUNNY     43  30  61 S5        30.21S
HILL CITY      SUNNY     43  28  55 E6        30.20S
RUSSELL        SUNNY     48  33  56 SE7       30.21R
$$

KSZ061>065-074>080-084>089-291600-
SOUTHWEST KANSAS

CITY           SKY/WX    TMP DP  RH WIND       PRES   REMARKS
DODGE CITY     SUNNY     51  35  54 SW9       30.22R
ELKHART          N/A     53  34  48 SW15        N/A
GARDEN CITY    SUNNY     47  35  63 S7        30.20R
GREAT BEND     SUNNY     46  36  66 S3        30.23S
LIBERAL        SUNNY     50  36  57 S12       30.25R
PRATT          SUNNY     50  32  50 CALM      30.25R
$$

KSZ066>073-081>083-090>101-291600-
SOUTHEAST KANSAS

CITY           SKY/WX    TMP DP  RH WIND       PRES   REMARKS
CHANUTE        SUNNY     52  39  61 NE6       30.25R
COFFEYVILLE    SUNNY     51  42  71 N3        30.26R
HUTCHINSON     SUNNY     53  35  50 SE6       30.25R
MEDICINE LODGE   N/A     50  37  61 CALM      30.24S
NEWTON         SUNNY     52  32  46 E7        30.26S
PARSONS        SUNNY     52  43  71 VRB3      30.27R
WICHITA INTL   SUNNY     53  38  56 CALM      30.24R
WICHITA JABRA  SUNNY     52  36  54 SE6       30.24R
WICHITA MCCONL SUNNY     54  34  47 E3        30.25R
WINFIELD       SUNNY     52  42  69 CALM      30.26R
$$

KSZ007>012-019>026-033>040-048>060-102>105-291600-
NORTHEAST KANSAS

CITY           SKY/WX    TMP DP  RH WIND       PRES   REMARKS
CONCORDIA      SUNNY     45  36  70 SE7       30.25R
EMPORIA        SUNNY     47  38  71 E5        30.26R
LAWRENCE       SUNNY     46  39  76 NW3       30.28R
MANHATTAN      SUNNY     42  37  82 CALM      30.27R
MARYSVILLE     SUNNY     41  34  75 CALM      30.26S
OLATHE IND     SUNNY     49  37  63 N6        30.27R
OLATHE EXE     SUNNY     50  34  54 NE7       30.25R
SALINA         SUNNY     46  34  62 E6        30.26S
TOPEKA BILLARD SUNNY     47  39  74 CALM      30.28R
TOPEKA FORBES  SUNNY     48  37  65 CALM      30.27R
$$



USA.gov is the U.S. government's official web portal to all federal, state and local government web resources and services.